Regional Weather Roundup
Issued by NWS

Home | Current Version | Previous Version | Text Only | Print | Product List | Glossary On
Versions: 1 2 3 4 5 6 7 8 9 10 11 12 13 14 15 16 17 18 19 20 21 22 23 24 25 26 27 28 29 30 31 32 33 34 35 36 37 38 39 40 41 42 43 44 45 46 47 48 49 50
148
ASUS45 KREV 280810
RWRNV
NEVADA REGIONAL WEATHER ROUNDUP
NATIONAL WEATHER SERVICE RENO NV
100 AM PDT TUE MAR 28 2017

NOTE: "FAIR" INDICATES FEW OR NO CLOUDS BELOW 12,000 FEET WITH NO
SIGNIFICANT WEATHER AND/OR OBSTRUCTIONS TO VISIBILITY.

NVZ001-003-004-280900-
WESTERN NEVADA

CITY           SKY/WX    TMP DP  RH WIND       PRES   REMARKS
RENO           MOCLDY    40  26  57 CALM      30.27F
CARSON CITY    FAIR      36  23  60 N6        30.27S
MINDEN         FAIR      28  23  80 SE9       30.28R
FALLON         CLEAR     32  20  61 SE3       30.24R
LOVELOCK       CLEAR     33  23  66 E8        30.25R
HAWTHORNE      CLEAR     39  23  52 W6        30.24S
$$

NVZ002-CAZ072-073-280900-
NORTHERN AND CENTRAL SIERRA

CITY           SKY/WX    TMP DP  RH WIND       PRES   REMARKS
S. LAKE TAHOE  PTCLDY    30  23  75 SW3       30.24S
TRUCKEE        PTCLDY    27  25  93 CALM      30.27S
SQUAW VLY 8000 NOT AVBL
SUSANVILLE     CLEAR     37  28  70 CALM      30.27F
MAMMOTH LAKES  FAIR      30  16  57 NW10      30.24F
BRIDGEPORT       N/A     26  18  71 CALM      30.22S
$$

NVZ030-031-036-280900-
NORTHERN NEVADA

CITY           SKY/WX    TMP DP  RH WIND       PRES   REMARKS
ELKO           CLEAR     31  25  78 SW3       30.18R
WINNEMUCCA     CLEAR     29  24  82 CALM      30.24R
WENDOVER       CLEAR     40  23  50 NW25G32   30.07S
$$

NVZ035-037-280900-
CENTRAL NEVADA

CITY           SKY/WX    TMP DP  RH WIND       PRES   REMARKS
ELY            PTCLDY    30  24  78 NW8       30.12R
EUREKA           N/A     30  22  72 NW5       30.17S
$$

NVZ013-014-280900-
SOUTH CENTRAL NEVADA

CITY           SKY/WX    TMP DP  RH WIND       PRES   REMARKS
TONOPAH        CLEAR     37  21  52 N20       30.18R
$$

NVZ017-020-022-280900-
SOUTHERN NEVADA

CITY           SKY/WX    TMP DP  RH WIND       PRES   REMARKS
LAS VEGAS      PTCLDY    58  23  26 N17G29    29.99R
N. LAS VEGAS   CLEAR     57  24  28 N21G32    29.98R
NELLIS AFB     CLEAR     58  27  30 W14       30.00R
HENDERSON      CLEAR     56  25  30 N22       30.00R
MERCURY        CLEAR     47  24  40 CALM      30.10R
$$




USA.gov is the U.S. government's official web portal to all federal, state and local government web resources and services.